Regional Weather Roundup
Issued by NWS

Home | Current Version | Previous Version | Graphics & Text | Print | Product List | Glossary Off
Versions: 1 2 3 4 5 6 7 8 9 10 11 12 13 14 15 16 17 18 19 20 21 22 23 24 25 26 27 28 29 30 31 32 33 34 35 36 37 38 39 40 41 42 43 44 45 46 47 48 49 50

000
ASUS43 KTOP 291108
RWRKS

WEATHER ROUNDUP FOR KANSAS
NATIONAL WEATHER SERVICE GOODLAND KS
600 AM CDT SUN MAY 29 2016

NOTE:  "FAIR" INDICATES FEW OR NO CLOUDS BELOW 12,000 FEET WITH NO
SIGNIFICANT WEATHER AND/OR OBSTRUCTIONS TO VISIBILITY.

KSZ001>006-013>018-027>032-041>047-291200-
NORTHWEST KANSAS

CITY           SKY/WX    TMP DP  RH WIND       PRES   REMARKS
GOODLAND       CLEAR     50  46  86 CALM      30.11R
HAYS           CLEAR     55  46  71 W6        30.09R
HILL CITY      PTCLDY    54  51  90 CALM      30.08R
RUSSELL        CLEAR     57  54  89 SW5       30.07R
$$

KSZ061>065-074>080-084>089-291200-
SOUTHWEST KANSAS

CITY           SKY/WX    TMP DP  RH WIND       PRES   REMARKS
DODGE CITY     CLOUDY    62  54  74 S9        30.10R
ELKHART          N/A     58  49  72 S6          N/A
GARDEN CITY    CLEAR     57  49  74 SE7       30.10R
GREAT BEND     CLOUDY    59  52  77 S3        30.08S
LIBERAL        CLOUDY    61  50  67 E3        30.13R
PRATT          PTCLDY    59  52  77 S5        30.11R
$$

KSZ066>073-081>083-090>101-291200-
SOUTHEAST KANSAS

CITY           SKY/WX    TMP DP  RH WIND       PRES   REMARKS
CHANUTE        CLEAR     60  58  92 CALM      30.08R FOG
COFFEYVILLE    CLEAR     62  60  93 CALM      30.07R
HUTCHINSON     CLEAR     60  56  86 E3        30.08R
MEDICINE LODGE   N/A     59  54  83 CALM      30.09R
NEWTON         CLEAR     61  54  77 S6        30.12R
PARSONS        FOG       60  59  96 CALM      30.09R VSB 3/4
WICHITA INTL   PTCLDY    60  57  89 S3        30.08R
WICHITA JABRA  CLEAR     61  59  93 CALM      30.08R
WICHITA MCCONL CLEAR     62  58  86 S5        30.09R
WINFIELD       CLEAR     59  58  96 CALM      30.09R
$$

KSZ007>012-019>026-033>040-048>060-102>105-291200-
NORTHEAST KANSAS

CITY           SKY/WX    TMP DP  RH WIND       PRES   REMARKS
CONCORDIA      CLEAR     60  53  77 CALM      30.06R
EMPORIA        CLEAR     58  56  93 S7        30.08R
LAWRENCE       CLEAR     56  56 100 CALM      30.06R FOG
MANHATTAN      CLEAR     56  54  93 CALM      30.05R
MARYSVILLE     CLEAR     54  54 100 CALM      30.06R
OLATHE IND     CLEAR     58  57  97 S5        30.08R
OLATHE EXE     CLEAR     58  57  97 S3        30.07R
SALINA         CLEAR     57  55  93 S9        30.06R
TOPEKA BILLARD CLEAR     61  57  87 S6        30.05R
TOPEKA FORBES  CLEAR     62  58  86 S8        30.05R
$$




USA.gov is the U.S. government's official web portal to all federal, state and local government web resources and services.